User: anonymous
Location: Unspecified
(0.0000°N, 0.0000°E)
Time: 18:51:32
(UTC+00:00)
Language:

PLEIADES HR1 - Orbit

View from above orbital plane
View from above orbital plane
View from above satellite
View from above satellite

Ground track
Ground track

The orbit data is extracted from the following two-line orbital elements,

1 38012U 11076F   14245.47283578  .00000314  00000-0  77321-4 0   307
2 38012 098.1911 319.3529 0001342 082.6681 277.4676 14.58572318144369
Epoch (UTC): 02 September 2014 11:20:53
Eccentricity: 0.0001342
inclination: 98.1911°
perigee height: 697 km
apogee height: 699 km
right ascension of ascending node: 319.3529°
argument of perigee: 82.6681°
revolutions per day: 14.58572318
mean anomaly at epoch: 277.4676°
orbit number at epoch: 14436

The dashed part of the orbit path shows where the satellite is in the earth's shadow,  

DLR